www.pogodaiklimat.ru
Время
(UTC), дата
15 30.05
18 30.05
21 30.05
00 31.05
03 31.05
06 31.05
09 31.05
12 31.05
15 31.05
18 31.05
21 31.05
00 1.06
03 1.06
06 1.06
09 1.06
12 1.06
15 1.06
18 1.06
21 1.06
00 2.06
03 2.06
06 2.06
09 2.06
12 2.06
15 2.06
18 2.06
21 2.06
00 3.06
03 3.06
06 3.06
09 3.06
12 3.06
15 3.06
18 3.06
21 3.06
00 4.06
03 4.06
06 4.06
09 4.06
12 4.06
15 4.06
18 4.06
21 4.06
00 5.06
03 5.06
06 5.06
09 5.06
12 5.06
15 5.06
18 5.06
21 5.06
00 6.06
03 6.06
06 6.06
09 6.06
12 6.06
Ветер
(напр.,м/с)
Видим. Явления Облачность Т
(С)
Тd
(С)
f
(%)
Тe
(С)
Тes
(С)
Комфортность P
(гПа)
Po
(гПа)
Тmin
(С)
Tmax
(С)
R
(мм)
R24
(мм)
S
(см)
штиль 0 н/о 10/3 600 м
[Cb cap Ci fib]
+9.8 -1.2 46 +10 +10 1006.3 956.1
штиль 0 н/о 10/6 600 м
[Cb cap Ac trans Ci fib]
+6.6 -0.4 61 +6 +6 1006.0 955.2
штиль 0 50 км 9/9 600 м
[Cb cap]
+6.9 +1.9 70 +6 +6 1005.1 954.5
Ю 2 50 км 8/3 600 м
[Sc Ac trans Ci fib]
+11.8 -1.4 40 +11 +13 1004.0 954.2 +6.6
В 4 50 км 9/0
[Cs]
+14.2 +1.8 43 +13 +20 1003.0 953.7
ЮВ 4 50 км 10/4 600 м
[Sc diur, vesp Ac As Ci fib]
+17.2 +0.4 32 +17 +20 1001.6 952.8
СЗ 6-10
{10}
50 км 10/6 600 м
[Cb cap Ac As]
+17.4 +5.2 45 +17 +17 1002.6 953.9
З 4
{10}
50 км {ливн. осадки} 10/6 600 м
[Cb cap Ac As]
+15.3 +5.9 53 +14 +15 1003.7 954.6 +19.0 0.3
СЗ 1 н/о 8/3 600 м
[Sc Ac lent Cs]
+10.4 +4.7 68 +10 +10 1005.5 955.5
З 1 н/о 10/5 600 м
[Cb cap Ac lent Cs]
+7.7 +4.6 81 +7 +7 1005.6 955.1
СЗ 2 10 км слаб. ливневой дождь 10/8 600 м
[Cb cap As op]
+8.3 +7.6 95 +6 +6 1004.9 954.6
ЮЗ 1 50 км {ливн. осадки} 10/6 600 м
[Cb cap Ac As]
+9.8 +8.2 90 +9 +10 1003.9 953.9 +7.5 7
З 5 50 км {ливн. осадки} 10/10 600 м
[Cb cap]
+11.7 +7.2 74 +9 +9 1002.7 953.1
В 5 50 км {ливн. осадки} 8/8 600 м
[Cb cap]
+11.0 +6.8 75 +8 +10 1001.6 951.9
З 4 50 км гроза без осадков {ливн. осадки} 9/9 600 м
[Cb cap]
+13.6 +6.6 63 +12 +13 1000.5 951.3
С 6-10
{13}
50 км {гроза, ливн. осадки} 10/8 600 м
[Cb cap Ci fib]
+9.6 +5.8 77 +6 +6 1002.9 952.9 +14.1 6
СЗ 4
{13}
н/о 8/6 600 м
[Cb cap Ac trans Ci fib]
+8.3 +5.0 80 +5 +5 1005.2 954.8
СЗ 5 н/о 10/5 600 м
[Cb cap Ac trans Ci fib]
+7.6 +4.0 78 +4 +4 1006.3 955.8
СЗ 6
{11}
50 км 10/4 600 м
[Cb cap Ac trans Cs]
+6.8 +3.4 79 +2 +2 1008.2 957.4
СЗ 5-10
{11}
50 км 8/4 600 м
[Sc diur, vesp Ac trans Cs]
+7.7 +3.7 76 +4 +5 1009.8 959.0 +6.7
СЗ 5
{11}
50 км 6/6 600 м
[Sc diur, vesp]
+13.1 +5.1 58 +11 +14 1008.5 958.8
СЗ 5
{10}
50 км 9/8 600 м
[Cb cap Ac trans]
+14.9 +3.3 46 +14 +15 1007.8 958.4
СВ 2 50 км 8/5 600 м
[Sc diur, vesp Ac trans Ci fib]
+17.1 +1.9 36 +17 +20 1006.7 957.7
В 1 50 км 4/1 600 м
[Sc diur, vesp Ci sp]
+16.0 +2.2 39 +17 +18 1005.9 956.8 +17.1
Ю 1 н/о 3/0
[Ci fib]
+9.9 +4.5 69 +10 +10 1007.1 956.9
З 2 н/о 8/0
[Ci fib]
+4.7 +2.2 84 +2 +2 1007.5 956.3
З 2 50 км 5/0
[Ci fib]
+3.3 +1.7 89 0 0 1007.1 955.7
СВ 1 50 км 10/4 600 м
[Sc Ac trans Ci fib]
+9.5 +4.7 72 +9 +11 1005.7 955.5 +3.0
В 2 50 км 10/5 600 м
[Sc diur, vesp Ac As]
+11.1 +7.2 77 +10 +12 1005.3 955.4
В 4 50 км {дождь} 9/4 600 м
[Sc Ac As Cs]
+14.1 +6.9 62 +13 +17 1004.7 955.4
В 4 50 км 8/3 600 м
[Sc diur, vesp Cs]
+14.6 +8.0 65 +13 +17 1003.4 954.2
З 2 50 км 10/8 600 м
[Cb cap Ac As]
+15.5 +6.9 57 +15 +16 1004.5 955.4 +16.2 0.0
С 1 н/о {гроза, ливн. осадки} 8/3 600 м
[Sc diur, vesp Ac trans Ci fib]
+11.0 +9.2 89 +11 +11 1005.8 956.0
СЗ 3 н/о {гроза, ливн. осадки} 10/5 600 м
[Cb cap Ac trans Ci fib]
+10.3 +8.5 89 +8 +8 1008.1 958.0
СЗ 2 20 км слаб. ливневой дождь 10/10 600 м
[Cb cap]
+9.6 +8.8 95 +8 +8 1009.4 959.1
СЗ 4 50 км {ливн. осадки} 8/4 600 м
[Sc diur, vesp Ac trans Ci fib]
+11.6 +7.0 73 +10 +11 1010.7 960.6 +9.6 6
ЮВ 2 50 км 8/3 600 м
[Cu hum Ac trans Ci fib]
+12.8 +6.3 65 +12 +18 1010.3 960.5
ЮВ 3 50 км 10/6 600 м
[Cu Sc Cs]
+15.1 +5.6 53 +15 +19 1009.1 959.7
В 3 50 км 6/3 600 м
[Cu Sc Ci fib]
+16.7 +2.8 39 +17 +21 1007.0 958.0
В 2 50 км 6/3 600 м
[Sc Cs]
+16.6 +1.8 37 +17 +17 1007.1 958.0 +17.8
штиль 0 н/о 6/3 600 м
[Sc Ac trans Cs]
+10.6 +5.4 70 +10 +10 1008.2 958.1
З 2 н/о 10/6 600 м
[Cb cap Ac As Cs]
+7.9 +4.6 80 +6 +6 1008.4 957.8
С 3 50 км 10/4 600 м
[Cb cap Ac trans Cs]
+8.5 +5.8 83 +6 +6 1007.3 956.8
СЗ 2 50 км 10/3 600 м
[Sc Ac trans Cs]
+9.8 +5.6 75 +8 +10 1007.0 956.8 +7.7
СЗ 3 50 км 10/3 600 м
[Sc Ac trans Cs]
+13.9 +3.8 51 +13 +17 1005.8 956.3
С 2 50 км 10/3 600 м
[Sc diur, vesp Ac trans Cs]
+18.5 +2.3 34 +19 +25 1004.2 955.5
Ю 2 50 км 8/5 600 м
[Sc diur, vesp Ac trans]
+19.1 +2.2 32 +20 +22 1003.2 954.7
ЮВ 1 50 км 10/3 600 м
[Cu Sc Ac trans Cs]
+17.4 +4.4 42 +18 +19 1002.9 954.2 +20.5
ЮВ 1 н/о 10/3 600 м
[Cu Sc Ac As Ci fib]
+12.9 +6.7 66 +13 +13 1003.2 953.7
ЮВ 2 н/о 10/6 600 м
[Cb cap Ac As]
+12.3 +8.9 80 +11 +11 1001.8 952.3
В 3 50 км 10/6 600 м
[Cb cap Ac As]
+13.1 +7.4 68 +12 +12 998.7 949.5
В 4 20 км слаб. ливневой дождь 10/8 600 м
[Cb cap Ac As]
+12.3 +8.1 76 +10 +11 996.7 947.5 +11.9 0.0
ЮВ 6
{10}
50 км {ливн. осадки} 10/8 600 м
[Cb cap Ac As]
+11.9 +8.3 79 +9 +9 994.8 945.6 +11.0
СЗ 3
{10}
20 км слаб. ливневой дождь 10/6 600 м
[Cb cap Ac As]
+11.7 +9.7 88 +10 +12 996.5 947.2
С 2 50 км {ливн. осадки} 8/3 600 м
[Sc diur, vesp Ac trans Ci fib]
+16.1 +10.2 68 +16 +20 997.4 948.8
СЗ 4
{10}
50 км {ливн. осадки} 3/3 600 м
[Sc diur, vesp]
+14.8 +4.3 49 +14 +14 999.8 950.8 +17.7 5
Местоположение метеостанции Балаганск (Иркутская область, Россия): широта 54.00 долгота 103.00 высота над уровнем моря 427 м.
В архиве по умолчанию представлена погода в Балаганске за последнюю неделю. Архивные данные за месяц целиком и за предыдущие месяцы, начиная с января 2011 года, Вы можете получить, выбрав интересующий диапазон дат из раскрывающегося списка и нажав кнопку "Найти!".
*Определитесь, кто Вы:
Внимание! Время в таблицах - всемирное. Для получения местного времени необходимо прибавить поправку, которая равна 8 ч.
Смотрите также архив погоды в соседних городах и на ближайших метеорологических станциях:
Партнеры нашего сайта:      
Пояснения к столбцам:
  • Ветер - указаны скорость ветра в м/с - средняя за 10 мин, порывы в срок и между сроками (в фигурных скобках) и направление, откуда дует ветер: С - северный,
  • СВ - северо-восточный, В - восточный, ЮВ - юго-восточный, Ю - южный, ЮЗ - юго-западный, З - западный, СЗ - северо-западный.
  • Видимость - горизонтальная дальность видимости в метрах или километрах. При видимости от 1 до 10 км при отсутствии осадков обычно наблюдается дымка, при ухудшении видимости до 1 км и менее - туман. В сухую погоду видимость может ухудшаться дымом, пылью или мглою.
  • Явления - указаны атмосферные явления, наблюдавшиеся в срок или в последний час перед сроком; фигурными скобками обозначены явления, наблюдавшиеся между сроками (за 1-3 часа до срока); квадратными скобками обозначены град или гололедные отложения с указанием их диаметра в мм.
  • Облачность - указаны через наклонную черту общая и нижняя облачность в баллах и высота нижней границы облаков в метрах; квадратными скобками обозначены формы облаков: Ci - перистые, Cs - перисто-слоистые, Cc - перисто-кучевые, Ac - высококучевые, As - высокослоистые, Sc - слоисто-кучевые, Ns - слоисто-дождевые, Cu - кучевые, Cb - кучево-дождевые. Подробнее классификацию облаков см. в Атласе облаков (PDF).
  • T - Температура воздуха - температура, измеренная на высоте 2 м над землей.
  • Td - Температура точки росы - температура, при понижении до которой содержащийся в воздухе водяной пар достигнет насыщения.
  • f - Относительная влажность воздуха - влажноcть воздуха, измеренная на высоте 2 м над землей.
  • Te - Эффективная температура - температура, которую ощущает одетый по сезону человек в тени. Характеристика душности погоды. При расчете учитывается влияние влажности воздуха и скорости ветра на теплоощущения человека.
  • Tes - Эффективная температура на солнце - температура, которую ощущает человек, с поправкой на солнечный нагрев. Характеристика знойности погоды. Зависит от высоты солнца над горизонтом, облачности и скорости ветра. Ночью, в пасмурную погоду, а также при ветре 12 м/с и более поправка равна нулю.
  • P - Атмосферное давление - приведенное к уровню моря атмосферное давление.
  • Po - Атмосферное давление - измеренное на уровне метеостанции атмосферное давление.
  • Tmin - Минимальная температура - минимум температуры воздуха на высоте 2 м над землей.
  • Tmax - Максимальная температура - максимум температуры воздуха на высоте 2 м над землей.
  • R - Количество осадков - Количество выпавших осадков за период времени, мм. При наведении курсора мыши на число - период времени, за который выпало указанное количество осадков.
  • R24 - Количество осадков - Количество выпавших осадков за 24 часа, мм.
  • S - Снежный покров - Высота снежного покрова, см. При наведении курсора мыши на число - состояние снежного покрова и степень покрытия местности в баллах.